TimePST,TemperatureF,Dew PointF,Humidity,Sea Level PressureIn,VisibilityMPH,Wind Direction,Wind SpeedMPH,Gust SpeedMPH,PrecipitationIn,Events,Conditions,WindDirDegrees,DateUTC
12:53 AM,45.0,43.0,93,30.09,4.0,NNE,5.8,-,0.03,Rain,Light Rain,30,2012-11-12 08:53:00
1:42 AM,44.6,42.8,93,30.08,5.0,NE,4.6,-,0.03,Rain,Light Rain,40,2012-11-12 09:42:00
1:53 AM,44.1,43.0,96,30.09,4.0,NE,5.8,-,0.03,Rain,Light Rain,40,2012-11-12 09:53:00
2:53 AM,44.1,43.0,96,30.09,5.0,NE,4.6,-,0.00,Rain,Light Rain,40,2012-11-12 10:53:00
3:53 AM,45.0,43.0,93,30.09,5.0,Calm,Calm,-,0.03,Rain,Light Rain,0,2012-11-12 11:53:00
4:21 AM,44.6,42.8,93,30.08,5.0,Calm,Calm,-,0.00,Rain,Light Rain,0,2012-11-12 12:21:00
4:48 AM,44.6,42.8,93,30.09,6.0,Calm,Calm,-,0.01,Rain,Light Rain,0,2012-11-12 12:48:00
4:53 AM,45.0,43.0,93,30.10,6.0,Calm,Calm,-,0.01,,Overcast,0,2012-11-12 12:53:00
5:31 AM,46.4,42.8,87,30.08,9.0,Calm,Calm,-,0.01,,Overcast,0,2012-11-12 13:31:00
5:53 AM,46.0,44.1,93,30.09,3.0,Calm,Calm,-,0.01,Rain,Light Rain,0,2012-11-12 13:53:00
6:35 AM,46.4,44.6,93,30.09,10.0,South,5.8,-,0.01,,Overcast,180,2012-11-12 14:35:00
6:53 AM,46.9,44.1,90,30.10,10.0,SSW,8.1,-,0.01,,Overcast,200,2012-11-12 14:53:00
7:53 AM,48.9,45.0,86,30.12,10.0,SSW,6.9,-,N/A,,Overcast,200,2012-11-12 15:53:00
8:53 AM,48.9,45.0,86,30.13,10.0,South,12.7,18.4,N/A,,Overcast,190,2012-11-12 16:53:00
9:15 AM,50.0,44.6,82,30.12,10.0,South,15.0,20.7,N/A,,Overcast,190,2012-11-12 17:15:00
9:42 AM,50.0,46.4,87,30.13,10.0,SSW,13.8,-,N/A,,Overcast,200,2012-11-12 17:42:00
9:53 AM,50.0,46.0,86,30.14,10.0,South,11.5,-,N/A,,Overcast,190,2012-11-12 17:53:00
10:53 AM,52.0,46.0,80,30.15,10.0,South,13.8,19.6,N/A,,Mostly Cloudy,190,2012-11-12 18:53:00
11:53 AM,52.0,46.0,80,30.16,10.0,South,8.1,-,N/A,,Overcast,180,2012-11-12 19:53:00
12:53 PM,54.0,46.0,75,30.15,10.0,South,11.5,17.3,N/A,,Mostly Cloudy,190,2012-11-12 20:53:00
1:53 PM,53.1,46.0,77,30.16,10.0,South,9.2,-,N/A,,Mostly Cloudy,190,2012-11-12 21:53:00
2:53 PM,52.0,46.0,80,30.16,10.0,SSW,9.2,-,N/A,,Mostly Cloudy,200,2012-11-12 22:53:00
3:53 PM,52.0,46.0,80,30.17,10.0,SSW,6.9,-,N/A,,Mostly Cloudy,210,2012-11-12 23:53:00
4:53 PM,51.8,46.4,82,30.17,10.0,South,5.8,-,N/A,,Overcast,180,2012-11-13 00:53:00
5:53 PM,51.1,46.0,83,30.18,10.0,South,4.6,-,0.00,,Overcast,170,2012-11-13 01:53:00
6:53 PM,51.1,46.0,83,30.19,10.0,South,8.1,-,N/A,,Overcast,180,2012-11-13 02:53:00
7:53 PM,50.0,46.0,86,30.20,10.0,SSW,10.4,-,N/A,,Overcast,200,2012-11-13 03:53:00
8:29 PM,50.0,46.4,87,30.20,9.0,South,11.5,-,N/A,,Overcast,190,2012-11-13 04:29:00
8:53 PM,48.9,46.9,93,30.21,10.0,South,10.4,-,0.00,,Overcast,190,2012-11-13 04:53:00
9:35 PM,48.2,46.4,93,30.20,10.0,South,5.8,-,0.00,,Overcast,180,2012-11-13 05:35:00
9:53 PM,48.9,46.9,93,30.21,10.0,South,8.1,-,0.00,,Overcast,180,2012-11-13 05:53:00
10:53 PM,48.9,46.0,90,30.22,10.0,South,6.9,-,N/A,,Mostly Cloudy,190,2012-11-13 06:53:00
11:53 PM,48.9,46.0,90,30.22,10.0,Calm,Calm,-,N/A,,Overcast,0,2012-11-13 07:53:00